Location: Meinert
(37.9441°N, 122.0275°W)
Time: 16:21:24
(UTC+00:00)

Cosmos 2297 - Pass Details

Date: 18 April 2024
Orbit: 834 x 859 km, 71.0° (Epoch: 23 May)

Event Time Altitude Azimuth Distance (km) Brightness Sun altitude
Rises 12:25:04 0° 334° (NNW) 3,438 6.9 -12.5°
Reaches altitude 10° 12:27:32 10° 332° (NNW) 2,500 6.1 -12.0°
Maximum altitude 12:33:14 66° 251° (WSW) 937 3.7 -11.0°
Drops below altitude 10° 12:38:53 10° 171° (S) 2,482 6.0 -10.0°
Sets 12:41:20 0° 168° (SSE) 3,413 6.8 -9.5°
